[[{"header":{"parameterUnit":"m.s-1","parameterCategory":1,"la1":30.2991,"la2":30.254,"lo1":-89.0895,"lo2":-89.0444,"dy":0.0017,"dx":0.0017,"nx":28,"ny":28,"refTime":"2025-04-14T09:00:00:Z","depth":0,"parameterNumber":2,"parameterNumberName":"U-component_of_WINDS"},"data":[0,0,0,0,0,0,0,0,0,0,0,0,0,0,0,0,0,0,0,0,0,0,0,0,0,0,0,0,0,0,0,0,0,0,0,0,0,0,0,0,0,0,0,0,0,0,0,0,0,0,0,0,0,0,0,0,0,0,3.0437,3.0438,0,3.0547,3.0548,3.0549,3.0518,3.0516,3.0513,3.0511,3.0621,3.0625,3.063,0,0,0,0,0,0,0,0,0,0,0,0,0,3.0196,3.0201,3.0437,3.0438,3.044,3.0546,3.0548,3.0549,3.0518,3.0515,3.0513,3.051,3.0619,3.0625,3.0631,0,0,0,0,0,0,0,0,0,0,0,0,0,3.0303,3.0202,3.0437,3.0437,3.0438,3.0546,3.0548,3.055,3.0519,3.0515,3.0512,3.0509,3.0617,3.0624,3.0632,3.0745,0,0,3.0655,3.0658,0,0,0,0,0,0,0,0,3.0297,3.0312,3.0436,3.0437,3.0439,3.0515,3.0503,3.0615,3.052,3.0488,3.0511,3.0507,3.0588,3.0598,3.0625,3.075,3.0755,3.0655,3.066,3.0663,3.0665,0,0,0,0,0,0,0,3.0289,3.0307,3.048,3.0438,3.0439,3.043,3.0442,3.0524,3.0555,3.0491,3.0489,3.0502,3.0588,3.0618,3.0628,3.0756,3.0655,3.0662,3.0666,3.0669,3.0975,3.0978,0,0,0,0,0,0,3.0281,3.0301,3.0477,3.0484,3.0358,3.0437,3.045,3.0494,3.0554,3.0561,3.0505,3.05,3.0607,3.0619,3.0632,3.0764,3.0663,3.067,3.0674,3.0971,3.0976,3.098,0,0,0,0,0,0,3.0276,3.0297,3.0472,3.0392,3.0413,3.0445,3.0495,3.0498,3.0528,3.0565,3.057,3.053,3.0605,3.0621,3.0716,3.0768,3.0673,3.068,3.0967,3.0973,3.0978,3.1034,0,0,0,0,0,0,3.027,3.0296,3.034,3.0393,3.0418,3.0557,3.0498,3.0502,3.0541,3.0536,3.059,3.0596,3.0604,3.0705,3.0724,3.0777,3.0686,3.0962,3.0969,3.0976,3.1027,3.104,3.1052,0,0,0,0,0,3.0261,3.0352,3.0343,3.0364,3.0474,3.056,3.0574,3.0581,3.0546,3.0589,3.0613,3.0594,3.076,3.0715,3.0736,3.0792,3.0959,3.0967,3.0975,3.1022,3.1038,3.1051,0,0,0,0,0,0,3.0305,3.0359,3.0349,3.0461,3.0506,3.0554,3.061,3.0599,3.0654,3.0647,3.0654,3.0666,3.0762,3.0787,3.0736,3.0902,3.0854,3.0867,3.0882,3.0898,3.091,3.09,3.0692,0,0,0,0,0,3.0327,3.0394,3.0437,3.0531,3.0554,3.0578,3.0616,3.0618,3.0665,3.0683,3.0714,3.0759,3.082,3.0861,3.0921,3.1032,3.1041,3.108,3.1092,3.1102,3.1112,3.1168,3.1185,3.1006,3.1006,3.1006,0,0,3.0374,3.0412,3.0454,3.0541,3.0576,3.0642,3.0595,3.0668,3.0716,3.0694,3.0785,3.0809,3.0859,3.0962,3.1009,3.0985,3.1163,3.1112,3.112,3.1124,3.1178,3.1195,3.121,3.1012,3.1011,3.101,0,0,3.0493,3.0531,3.0611,3.0647,3.0701,3.0716,3.0735,3.0785,3.08,3.0892,3.0876,3.0933,3.104,3.1076,3.1108,3.1238,3.1221,3.1257,3.1319,3.1374,3.1388,3.14,3.1443,3.1458,3.1268,3.1268,3.1268,0,3.0544,3.0645,3.0653,3.0727,3.0763,3.0748,3.0827,3.0861,3.0932,3.0956,3.093,3.1062,3.1095,3.1204,3.1235,3.1263,3.1283,3.125,3.1386,3.1398,3.141,3.145,3.1467,3.1271,3.1271,3.1271,3.127,0,3.0703,3.0773,3.0831,3.0898,3.0942,3.1019,3.1036,3.108,3.1078,3.1095,3.1186,3.1226,3.129,3.1317,3.1316,3.1425,3.1408,3.1384,3.1335,3.143,3.1468,3.1484,3.1277,3.1275,3.1274,3.1273,0,0,3.0851,3.0922,3.0942,3.0971,3.1029,3.1082,3.1157,3.122,3.1255,3.1305,3.1364,3.1455,3.1432,3.1468,3.1471,3.152,3.1615,3.1489,3.149,3.1508,3.1732,3.1747,3.1765,3.1606,3.1609,3.1611,3.1726,0,3.0972,3.1103,3.1112,3.1229,3.1291,3.1276,3.1341,3.1382,3.14,3.1454,3.1473,3.1535,3.1503,3.1524,3.1572,3.1594,3.166,3.1586,3.1658,3.1661,3.1642,3.1786,3.1802,3.1909,3.1742,3.1744,3.1746,0,3.113,3.1182,3.1306,3.1352,3.1378,3.1436,3.1493,3.1547,3.1592,3.1601,3.1641,3.1636,3.171,3.1661,3.176,3.1709,3.174,3.1755,3.1759,3.1763,3.1707,3.179,3.1944,3.1958,3.177,3.1768,3.1767,0,3.122,3.1323,3.1409,3.1435,3.1492,3.1531,3.1557,3.1599,3.1636,3.1686,3.1709,3.1768,3.1799,3.1843,3.1853,3.1817,3.1951,3.1903,3.1958,3.1957,3.1984,3.1981,3.2141,3.201,3.201,3.201,3.2009,0,3.1351,3.1426,3.1449,3.1502,3.1585,3.1594,3.1675,3.1698,3.1735,3.179,3.1782,3.1833,3.1845,3.1899,3.1907,3.1986,3.2001,3.2008,3.2009,3.2007,3.2005,3.2024,3.2015,3.2014,3.2013,3.2012,3.2011,0,3.1465,3.1484,3.1576,3.1622,3.1635,3.1694,3.1732,3.1781,3.1798,3.1868,3.1884,3.191,3.1972,3.1987,3.2062,3.2067,3.2159,3.2155,3.2143,3.2142,3.2194,3.2187,3.2368,3.239,3.2248,3.225,3.2251,0,3.1545,3.1603,3.1654,3.1691,3.1718,3.1777,3.1814,3.1825,3.1863,3.1918,3.196,3.2021,3.207,3.2169,3.2193,3.2249,3.2244,3.2303,3.2252,3.2247,3.2239,3.2234,3.2238,3.2312,3.2313,3.2315,3.2316,0,3.1685,3.1691,3.1746,3.1803,3.1847,3.1893,3.1936,3.1966,3.1982,3.2026,3.2089,3.2127,3.2202,3.2262,3.2318,3.2341,3.233,3.2332,3.2347,3.2343,3.2333,3.2335,3.2166,3.2327,3.2326,3.2325,3.2324,3.2324,3.1782,3.183,3.1874,3.1934,3.1967,3.2008,3.2055,3.2077,3.2131,3.2192,3.2196,3.2263,3.2304,3.2378,3.2405,3.2457,3.2438,3.2461,3.2466,3.247,3.2473,3.2328,3.2468,3.2467,3.2467,3.2467,3.2467,0,3.1917,3.1944,3.1999,3.206,3.2106,3.2093,3.214,3.2179,3.2239,3.2279,3.2327,3.2398,3.2455,3.2483,3.2539,3.2575,3.2571,3.2589,3.2584,3.2589,3.2488,3.2468,3.2591,3.2591,3.2591,3.2591,3.2591,3.2591,3.1993,3.2073,3.2084,3.218,3.2206,3.2273,3.23,3.2336,3.2367,3.2447,3.2494,3.2513,3.2547,3.2605,3.2656,3.2663,3.2682,3.2702,3.2705,3.261,3.2597,3.2585,3.2565,3.2707,3.2707,3.2801,3.2802,3.2803]},{"header":{"parameterUnit":"m.s-1","parameterCategory":1,"la1":30.2991,"la2":30.254,"lo1":-89.0895,"lo2":-89.0444,"dy":0.0017,"dx":0.0017,"nx":28,"ny":28,"refTime":"2025-04-14T09:00:00:Z","depth":0,"parameterNumber":3,"parameterNumberName":"V-component_of_WINDS"},"data":[0,0,0,0,0,0,0,0,0,0,0,0,0,0,0,0,0,0,0,0,0,0,0,0,0,0,0,0,0,0,0,0,0,0,0,0,0,0,0,0,0,0,0,0,0,0,0,0,0,0,0,0,0,0,0,0,0,0,2.8989,2.8989,0,2.9054,2.9054,2.9055,2.9011,2.9009,2.9007,2.9005,2.9068,2.9072,2.9075,0,0,0,0,0,0,0,0,0,0,0,0,0,2.8822,2.8825,2.8989,2.8989,2.899,2.9054,2.9054,2.9055,2.9012,2.9009,2.9007,2.9005,2.9067,2.9071,2.9076,0,0,0,0,0,0,0,0,0,0,0,0,0,2.8891,2.8826,2.8988,2.8976,2.8976,2.9053,2.9054,2.9055,2.9012,2.9009,2.9006,2.9003,2.9066,2.9071,2.9076,2.9169,0,0,2.9092,2.9095,0,0,0,0,0,0,0,0,2.8887,2.8897,2.8977,2.8977,2.8977,2.9021,2.9019,2.9093,2.9013,2.8998,2.9005,2.9002,2.9055,2.9061,2.908,2.9171,2.9174,2.9093,2.9096,2.9098,2.91,0,0,0,0,0,0,0,2.8882,2.8894,2.9014,2.8978,2.8978,2.8966,2.8972,2.9033,2.9042,2.8999,2.8996,2.9005,2.9054,2.9075,2.9081,2.9175,2.9093,2.9097,2.9101,2.9103,2.9343,2.9346,0,0,0,0,0,0,2.8879,2.889,2.9012,2.9016,2.8924,2.8971,2.8979,2.901,2.9042,2.9044,2.9007,2.9002,2.9067,2.9075,2.9083,2.9191,2.9098,2.9103,2.9106,2.934,2.9344,2.9347,0,0,0,0,0,0,2.8876,2.8891,2.9009,2.8953,2.8967,2.8977,2.9013,2.9013,2.9033,2.9048,2.9049,2.9027,2.9065,2.9075,2.9147,2.9193,2.9106,2.9111,2.9336,2.9341,2.9346,2.941,0,0,0,0,0,0,2.8871,2.889,2.8926,2.8954,2.897,2.9075,2.9016,2.9016,2.9043,2.9037,2.9066,2.9068,2.9063,2.914,2.9152,2.9199,2.9115,2.9332,2.9338,2.9344,2.9404,2.9416,2.9427,0,0,0,0,0,2.8865,2.8941,2.8928,2.8943,2.9016,2.9077,2.9086,2.9081,2.9047,2.9082,2.9091,2.9067,2.9186,2.9147,2.9161,2.921,2.9329,2.9337,2.9344,2.9399,2.9414,2.9427,0,0,0,0,0,0,2.8918,2.8945,2.8931,2.9018,2.9046,2.907,2.9115,2.9098,2.9135,2.9128,2.9118,2.9125,2.92,2.9212,2.9168,2.9299,2.9252,2.9262,2.9289,2.9304,2.9315,2.931,2.9119,0,0,0,0,0,2.894,2.8989,2.9009,2.9084,2.9099,2.9105,2.9131,2.9124,2.9152,2.9163,2.9178,2.9205,2.9248,2.9276,2.9317,2.9405,2.941,2.9445,2.9457,2.9467,2.9475,2.9521,2.9536,2.9371,2.9371,2.9371,0,0,2.8985,2.9006,2.9038,2.9095,2.9116,2.9165,2.9115,2.9169,2.9205,2.9171,2.924,2.9251,2.928,2.936,2.9396,2.9373,2.9522,2.9476,2.9483,2.9487,2.953,2.9545,2.9559,2.9376,2.9375,2.9374,0,0,2.9093,2.9115,2.9179,2.92,2.9233,2.9236,2.9251,2.9278,2.9284,2.9353,2.9328,2.9369,2.9445,2.9466,2.9487,2.9601,2.9579,2.9614,2.9675,2.9719,2.9732,2.9744,2.9783,2.9797,2.9623,2.9623,2.9623,0,2.9145,2.922,2.9214,2.927,2.9295,2.9267,2.9331,2.9352,2.9395,2.9412,2.9386,2.9478,2.9496,2.9579,2.9607,2.9625,2.9641,2.961,2.9731,2.9742,2.9753,2.979,2.9805,2.9627,2.9626,2.9626,2.9626,0,2.9281,2.9333,2.9381,2.9424,2.9455,2.9514,2.9515,2.9546,2.9536,2.9542,2.9611,2.9631,2.9674,2.9694,2.9685,2.9776,2.976,2.9733,2.9684,2.9773,2.9807,2.9822,2.9633,2.9631,2.963,2.9629,0,0,2.9425,2.9463,2.9481,2.9499,2.9532,2.9571,2.9628,2.9671,2.9698,2.9728,2.9774,2.9838,2.9812,2.9836,2.9828,2.9867,2.9954,2.9835,2.9835,2.9855,3.0053,3.0073,3.009,2.994,2.9943,2.9945,3.005,0,2.9533,2.9635,2.963,2.9724,2.977,2.9744,2.9793,2.9818,2.9824,2.9863,2.9869,2.9913,2.9877,2.9891,2.9928,2.9936,2.9994,2.9928,2.9981,2.9983,2.9974,3.0108,3.013,3.0228,3.0064,3.0066,3.0068,0,2.9674,2.971,2.9809,2.9833,2.9852,2.9897,2.9935,2.9974,3.0,3.0001,3.0027,3.0012,3.0068,3.0019,3.0094,3.005,3.0071,3.0078,3.0081,3.0085,3.0031,3.0114,3.026,3.0274,3.0089,3.0088,3.0086,0,2.9767,2.9839,2.9908,2.9924,2.9955,2.9986,3.0,3.0024,3.0049,3.0082,3.0098,3.0137,3.0158,3.0187,3.0183,3.0148,3.0259,3.021,3.026,3.026,3.0284,3.0282,3.0434,3.03,3.03,3.0299,3.0299,0,2.9888,2.9949,2.9949,2.9991,3.0058,3.0051,3.0117,3.0127,3.0148,3.019,3.0169,3.0208,3.02,3.0239,3.0236,3.0298,3.0308,3.0309,3.0307,3.031,3.031,3.0323,3.0316,3.0303,3.0302,3.0302,3.0301,0,3.0003,3.0006,3.0078,3.0101,3.0108,3.0156,3.0174,3.0213,3.0217,3.027,3.0282,3.0287,3.0331,3.033,3.038,3.0378,3.0454,3.0444,3.0445,3.0443,3.0493,3.0487,3.0657,3.0678,3.0531,3.0533,3.0534,0,3.008,3.0126,3.0154,3.0181,3.0197,3.024,3.0266,3.026,3.0288,3.032,3.0354,3.0397,3.0431,3.0502,3.051,3.0547,3.0538,3.0595,3.0544,3.0545,3.0537,3.0534,3.0538,3.0605,3.0606,3.0608,3.0609,0,3.0215,3.0214,3.0253,3.0292,3.0324,3.0354,3.0382,3.0405,3.0402,3.0433,3.0479,3.0505,3.0556,3.0598,3.0634,3.0646,3.0626,3.0625,3.0638,3.0642,3.064,3.064,3.0471,3.0621,3.062,3.0619,3.0618,3.0618,3.0312,3.0351,3.0377,3.042,3.0441,3.0467,3.0504,3.0512,3.055,3.0592,3.0586,3.0636,3.0659,3.0705,3.072,3.0758,3.0738,3.0758,3.0762,3.0767,3.0772,3.0634,3.0765,3.0765,3.0764,3.0764,3.0764,0,3.0445,3.046,3.05,3.054,3.0574,3.0553,3.0583,3.0612,3.0657,3.068,3.0714,3.0765,3.0805,3.0815,3.0853,3.0881,3.0873,3.0891,3.0889,3.0891,3.0789,3.0773,3.0897,3.0897,3.0897,3.0897,3.0897,3.0897,3.0518,3.0583,3.0585,3.0659,3.0673,3.0723,3.0741,3.0764,3.0782,3.0841,3.0874,3.0881,3.0899,3.0937,3.0972,3.0974,3.0989,3.101,3.1008,3.0912,3.0899,3.0886,3.0871,3.1014,3.1014,3.1107,3.1108,3.1109]}]]